This is the latest recevied weather packets stored in our database for station/object W5CRT. If no packets are shown the sender has not sent any weather packets the latest 10 day(s).
| Time | Temp. | Humidity | Pressure | Rain* | Wind** | Luminosity | Snow |
|---|---|---|---|---|---|---|---|
| 1777933483 | 27.78° C | 52% | 1005.6 hPa | 0 mm | - | 464 W/m² | - |
| 1777933180 | 27.78° C | 52% | 1005.4 hPa | 0 mm | - | 473 W/m² | - |
| 1777932877 | 27.78° C | 52% | 1005.6 hPa | 0 mm | - | 538 W/m² | - |
| 1777932574 | 27.78° C | 52% | 1005.6 hPa | 0 mm | - | 498 W/m² | - |
| 1777932271 | 27.78° C | 51% | 1005.5 hPa | 0 mm | - | 454 W/m² | - |
| 1777931968 | 28.33° C | 50% | 1005.6 hPa | 0 mm | - | 611 W/m² | - |
| 1777931665 | 27.78° C | 52% | 1005.8 hPa | 0 mm | - | 652 W/m² | - |
| 1777931361 | 27.22° C | 52% | 1005.8 hPa | 0 mm | - | 704 W/m² | - |
| 1777931058 | 27.22° C | 51% | 1006 hPa | 0 mm | - | 446 W/m² | - |
| 1777930754 | 27.78° C | 51% | 1006.3 hPa | 0 mm | - | 501 W/m² | - |
| 1777930450 | 28.33° C | 50% | 1006.2 hPa | 0 mm | - | 473 W/m² | - |
| 1777930148 | 27.78° C | 51% | 1006.2 hPa | 0 mm | - | 736 W/m² | - |
| 1777929843 | 27.78° C | 50% | 1006.4 hPa | 0 mm | - | 702 W/m² | - |
| 1777929542 | 27.22° C | 51% | 1006.5 hPa | 0 mm | - | 689 W/m² | - |
| 1777929237 | 27.22° C | 49% | 1006.5 hPa | 0 mm | - | 666 W/m² | - |
| 1777928935 | 27.22° C | 50% | 1006.4 hPa | 0 mm | - | 694 W/m² | - |
| 1777928631 | 27.22° C | 50% | 1006.4 hPa | 0 mm | - | 723 W/m² | - |
| 1777928329 | 27.22° C | 50% | 1006.6 hPa | 0 mm | - | 762 W/m² | - |
| 1777928026 | 27.22° C | 49% | 1007 hPa | 0 mm | - | 792 W/m² | - |
| 1777927725 | 27.78° C | 48% | 1006.8 hPa | 0 mm | - | 635 W/m² | - |
| 1777927423 | 27.22° C | 48% | 1006.9 hPa | 0 mm | - | 793 W/m² | - |
| 1777927122 | 27.78° C | 48% | 1007.1 hPa | 0 mm | - | 898 W/m² | - |
| 1777926818 | 27.22° C | 49% | 1007.1 hPa | 0 mm | - | 920 W/m² | - |
| 1777926514 | 27.78° C | 47% | 1007.4 hPa | 0 mm | - | 930 W/m² | - |
| 1777926212 | 27.78° C | 47% | 1007.7 hPa | 0 mm | - | 926 W/m² | - |
* Rain latest hour (hover to see other rain measurements)
** Current wind speed in m/s (hover to see current wind gust speed)